(602) Marianna
ephemeris date magn radius delta ra dec elong phase
Today18 Sep 202515.13.618 AU4.596 AU10h56m+04°47'11.7°3.2°
Opposition22 Mar 202614.13.818 AU2.834 AU11h50m-10°32'169.4°2.7°
(602) Marianna - 2025-09-18
astro.vanbuitenen.nl


 
-1 year
-1 month
-1 day
Now
+1 day
+1 month
+1 year

The interactive orbit chart above shows the body's path through the solar system and its position at the given date. Green and blue lines are shown perpendicular to the ecliptic plane: Green if the path is above the ecliptic plane, blue if it is below. (Left-click and drag to rotate the view; Right-click and drag to move the view; Use scroll wheel to zoom in our out.)

The orbital elements of Marianna are:

            e (Eccentricity)                : 0.2519131
            a (Semimajor axis)              : 3.0807102
            i (Inclination)                 : 15.11471
            Ω (Longitude of ascending node) : 331.38792
            ω (Argument of perihelion)      : 45.63479
            M (Mean anomaly)                : 98.62645
            Epoch                           : 2025 May 05

            L (Longitude of perihelion)     : 16.01417
            B (Latitude of perihelion)      : 10.74342
            P (Orbital period in years)     : 5.41            
        

The light curve chart below shows the estimated development of the minor planet's magnitude.


The all-sky chart below shows the path of the minor planet over the same period as the light curve. The current position is marked yellow.





The following chart shows the path of the minor planet in the next few days. The field of view is optimized for (~10x50) binoculars and finderscopes. A more printer-friendly version of the same chart can be found below.




Ephemerides:
Date       Time       RA (2000)    DEC (2000)    delta   radius  elong  phase   PA    magn
2025-09-18 00:00 UT   10 56 01.9   +04 47 07     4.596    3.618   11.7    3.2   283   15.1 
2025-09-18 08:48 UT   10 56 25.9   +04 43 60     4.596    3.619   12.0    3.3   284   15.1 
2025-09-19 00:00 UT   10 57 07.1   +04 38 36     4.595    3.620   12.4    3.4   284   15.1 
2025-09-20 00:00 UT   10 58 12.1   +04 30 05     4.592    3.621   13.0    3.6   284   15.1 
2025-09-21 00:00 UT   10 59 17.0   +04 21 34     4.590    3.623   13.7    3.8   285   15.1 
2025-09-22 00:00 UT   11 00 21.7   +04 13 03     4.588    3.624   14.4    3.9   285   15.1 
2025-09-23 00:00 UT   11 01 26.2   +04 04 32     4.585    3.626   15.1    4.1   285   15.1 
2025-09-24 00:00 UT   11 02 30.6   +03 56 01     4.583    3.627   15.7    4.3   285   15.1 
2025-09-25 00:00 UT   11 03 34.8   +03 47 30     4.580    3.629   16.4    4.5   286   15.2 
2025-09-26 00:00 UT   11 04 38.9   +03 38 58     4.577    3.630   17.1    4.7   286   15.2 
2025-09-27 00:00 UT   11 05 42.7   +03 30 27     4.573    3.632   17.8    4.8   286   15.2 
2025-09-28 00:00 UT   11 06 46.4   +03 21 56     4.570    3.633   18.5    5.0   286   15.2 
2025-09-29 00:00 UT   11 07 49.9   +03 13 26     4.566    3.635   19.1    5.2   287   15.2 
2025-09-30 00:00 UT   11 08 53.1   +03 04 55     4.562    3.636   19.8    5.4   287   15.2 
2025-10-01 00:00 UT   11 09 56.2   +02 56 24     4.558    3.637   20.5    5.5   287   15.2 
2025-10-02 00:00 UT   11 10 59.1   +02 47 54     4.554    3.639   21.2    5.7   287   15.2 
2025-10-03 00:00 UT   11 12 01.8   +02 39 24     4.550    3.640   21.9    5.9   287   15.2 
2025-10-04 00:00 UT   11 13 04.3   +02 30 54     4.545    3.642   22.6    6.0   287   15.2 
2025-10-05 00:00 UT   11 14 06.6   +02 22 25     4.541    3.643   23.2    6.2   287   15.2 
2025-10-06 00:00 UT   11 15 08.6   +02 13 56     4.536    3.645   23.9    6.4   288   15.2 
2025-10-07 00:00 UT   11 16 10.5   +02 05 27     4.531    3.646   24.6    6.6   288   15.2 
2025-10-08 00:00 UT   11 17 12.1   +01 56 59     4.526    3.648   25.3    6.7   288   15.3 
2025-10-09 00:00 UT   11 18 13.5   +01 48 31     4.520    3.649   26.0    6.9   288   15.3 
2025-10-10 00:00 UT   11 19 14.7   +01 40 03     4.515    3.650   26.7    7.1   288   15.3 
2025-10-11 00:00 UT   11 20 15.6   +01 31 36     4.509    3.652   27.4    7.2   288   15.3 
2025-10-12 00:00 UT   11 21 16.3   +01 23 09     4.503    3.653   28.1    7.4   288   15.3 
2025-10-13 00:00 UT   11 22 16.8   +01 14 43     4.497    3.655   28.8    7.6   288   15.3 
2025-10-14 00:00 UT   11 23 17.0   +01 06 17     4.491    3.656   29.5    7.7   289   15.3 
2025-10-15 00:00 UT   11 24 17.0   +00 57 52     4.484    3.657   30.2    7.9   289   15.3 
2025-10-16 00:00 UT   11 25 16.7   +00 49 28     4.478    3.659   30.9    8.1   289   15.3 


    Terminology:
            
    delta:  distance between minor planet and earth in AU
    radius: distance between minor planet and sun in AU
    magn:   magnitude (brightness) estimate    
    ra:     right ascension in hours (24h = 360deg)
    dec:    declination in degrees
    elong:  elongation in degrees (angle sun-earth-minor planet)    
    phase:  phase angle in degrees (angle sun-minor planet-earth)        
    AU:     Astronomical Unit (mean distance between earth and sun: 149597870.7 km
    

Orbital elements provided by the MPC (Minor Planet Center).
Calculations by a modified version of AAPlus, a C# implementation of the AA+ project by PJ Naughter from the algorithms presented in the book "Astronomical Algorithms" by Jean Meeus.
NGC2000 dso catalog and star labels from VizieR as provided by the Strasbourg astronomical Data Center.
Tycho2 catalog from the ESO archive.